Location: Cheyres
(46.8153°N, 6.7877°E)
Time: 14:07:57
(UTC+00:00)

FENGYUN 1C DEB - Pass Details

Date: 30 November 2021
Orbit: 843 x 915 km, 99.0° (Epoch: 18 January)

Event Time Altitude Azimuth Distance (km) Brightness Sun altitude
Exits shadow 16:59:53 12° 42° (NE) 2,366 ? -12.1°
Drops below altitude 10° 17:01:15 10° 28° (NNE) 2,510 ? -12.3°
Sets 17:05:07 0° 1° (N) 3,438 ? -13.0°
